| time (UTC) | temp F | wind direction | speed MPH | gust MPH | rain 1hr in | rain 24hr in | rain mn in | humidity % | barometer mb |
| 20260902194246 | 89 | 128 | 1.0 | 2.0 | 0.00 | 0.00 | 0.00 | 70 | 1014.0 |
| 20260902193742 | 89 | 263 | 2.0 | 3.0 | 0.00 | 0.00 | 0.00 | 71 | 1013.6 |
| 20260902193238 | 89 | 220 | 2.0 | 2.0 | 0.00 | 0.00 | 0.00 | 71 | 1014.0 |
| 20260902192736 | 89 | 229 | 2.0 | 2.0 | 0.00 | 0.00 | 0.00 | 71 | 1013.9 |
| 20260902192235 | 89 | 129 | 2.0 | 3.0 | 0.00 | 0.00 | 0.00 | 68 | 1014.2 |
| 20260902191731 | 90 | 310 | 1.0 | 2.0 | 0.00 | 0.00 | 0.00 | 69 | 1014.3 |
| 20260902191231 | 90 | 63 | 0.0 | 1.0 | 0.00 | 0.00 | 0.00 | 70 | 1014.1 |
| 20260902190726 | 89 | 263 | 3.0 | 3.0 | 0.00 | 0.00 | 0.00 | 71 | 1014.1 |
| 20260902190220 | 89 | 87 | 0.0 | 1.0 | 0.00 | 0.00 | 0.00 | 72 | 1014.3 |
| 20260902185716 | 88 | 74 | 1.0 | 1.0 | 0.00 | 0.00 | 0.00 | 76 | 1014.2 |
| 20260902185212 | 88 | 164 | 2.0 | 2.0 | 0.00 | 0.00 | 0.00 | 73 | 1014.2 |
| 20260902184712 | 89 | 81 | 1.0 | 1.0 | 0.00 | 0.00 | 0.00 | 74 | 1014.4 |
| 20260902184208 | 87 | 340 | 1.0 | 1.0 | 0.00 | 0.00 | 0.00 | 77 | 1014.3 |
| 20260902183704 | 87 | 298 | 3.0 | 3.0 | 0.00 | 0.00 | 0.00 | 76 | 1014.5 |
| 20260902183200 | 87 | 7 | 1.0 | 1.0 | 0.00 | 0.00 | 0.00 | 74 | 1014.5 |
| 20260902182655 | 88 | 116 | 1.0 | 1.0 | 0.00 | 0.00 | 0.00 | 73 | 1014.4 |
| 20260902182152 | 87 | 93 | 1.0 | 1.0 | 0.00 | 0.00 | 0.00 | 76 | 1014.5 |
| 20260902181648 | 87 | 356 | 2.0 | 3.0 | 0.00 | 0.00 | 0.00 | 74 | 1014.6 |
| 20260902181147 | 88 | 74 | 1.0 | 1.0 | 0.00 | 0.00 | 0.00 | 72 | 1014.6 |
| 20260902180642 | 88 | 86 | 0.0 | 0.0 | 0.00 | 0.00 | 0.00 | 74 | 1014.5 |
| 20260902180138 | 87 | 84 | 1.0 | 2.0 | 0.00 | 0.00 | 0.00 | 75 | 1014.7 |
| 20260902175638 | 86 | 84 | 0.0 | 1.0 | 0.00 | 0.00 | 0.00 | 75 | 1015.0 |
| 20260902175134 | 87 | 187 | 2.0 | 3.0 | 0.00 | 0.00 | 0.00 | 72 | 1014.6 |
| 20260902174630 | 86 | 108 | 2.0 | 3.0 | 0.00 | 0.00 | 0.00 | 74 | 1014.7 |
| 20260902174125 | 86 | 302 | 3.0 | 3.0 | 0.00 | 0.00 | 0.00 | 73 | 1015.0 |
| 20260902173620 | 86 | 97 | 0.0 | 1.0 | 0.00 | 0.00 | 0.00 | 75 | 1014.9 |
| 20260902173116 | 86 | 328 | 2.0 | 2.0 | 0.00 | 0.00 | 0.00 | 73 | 1015.1 |
| 20260902172615 | 85 | 65 | 0.0 | 0.0 | 0.00 | 0.00 | 0.00 | 74 | 1015.0 |
| 20260902172109 | 86 | 132 | 1.0 | 1.0 | 0.00 | 0.00 | 0.00 | 72 | 1015.1 |
| 20260902171605 | 85 | 143 | 1.0 | 2.0 | 0.00 | 0.00 | 0.00 | 72 | 1015.2 |
| 20260902171100 | 85 | 304 | 3.0 | 3.0 | 0.00 | 0.00 | 0.00 | 73 | 1015.1 |
| 20260902170555 | 86 | 90 | 0.0 | 1.0 | 0.00 | 0.00 | 0.00 | 70 | 1014.9 |
| 20260902170051 | 85 | 86 | 1.0 | 1.0 | 0.00 | 0.00 | 0.00 | 72 | 1015.0 |
| 20260902165551 | 85 | 94 | 0.0 | 0.0 | 0.00 | 0.00 | 0.00 | 70 | 1015.2 |
| 20260902165046 | 85 | 25 | 1.0 | 1.0 | 0.00 | 0.00 | 0.00 | 71 | 1015.2 |
| 20260902164541 | 85 | 41 | 2.0 | 2.0 | 0.00 | 0.00 | 0.00 | 71 | 1015.1 |
| 20260902164040 | 84 | 139 | 1.0 | 2.0 | 0.00 | 0.00 | 0.00 | 73 | 1015.2 |
| 20260902163536 | 84 | 86 | 1.0 | 1.0 | 0.00 | 0.00 | 0.00 | 75 | 1015.4 |
| 20260902163033 | 83 | 109 | 1.0 | 1.0 | 0.00 | 0.00 | 0.00 | 74 | 1015.2 |
| 20260902162528 | 83 | 40 | 2.0 | 3.0 | 0.00 | 0.00 | 0.00 | 74 | 1015.1 |
| 20260902162023 | 84 | 82 | 3.0 | 6.0 | 0.00 | 0.00 | 0.00 | 72 | 1014.6 |
| 20260902161518 | 84 | 105 | 2.0 | 2.0 | 0.00 | 0.00 | 0.00 | 74 | 1014.6 |
| 20260902161014 | 84 | 120 | 3.0 | 3.0 | 0.00 | 0.00 | 0.00 | 73 | 1014.6 |
| 20260902160510 | 83 | 96 | 1.0 | 1.0 | 0.00 | 0.00 | 0.00 | 74 | 1014.9 |
| 20260902160010 | 83 | 101 | 1.0 | 1.0 | 0.00 | 0.00 | 0.00 | 75 | 1015.1 |
| 20260902155503 | 83 | 100 | 2.0 | 2.0 | 0.00 | 0.00 | 0.00 | 73 | 1014.9 |
| 20260902155002 | 83 | 73 | 0.0 | 0.0 | 0.00 | 0.00 | 0.00 | 74 | 1015.1 |
| 20260902154457 | 82 | 124 | 2.0 | 2.0 | 0.00 | 0.00 | 0.00 | 73 | 1015.3 |
| 20260902153952 | 82 | 69 | 2.0 | 2.0 | 0.00 | 0.00 | 0.00 | 74 | 1015.2 |
| 20260902153450 | 81 | 81 | 2.0 | 2.0 | 0.00 | 0.00 | 0.00 | 76 | 1015.4 |
| 20260902152946 | 80 | 79 | 1.0 | 2.0 | 0.00 | 0.00 | 0.00 | 75 | 1015.2 |
| 20260902152442 | 81 | 74 | 1.0 | 2.0 | 0.00 | 0.00 | 0.00 | 76 | 1015.4 |
| 20260902151937 | 81 | 73 | 1.0 | 1.0 | 0.00 | 0.00 | 0.00 | 75 | 1015.4 |
| 20260902151434 | 81 | 105 | 1.0 | 2.0 | 0.00 | 0.00 | 0.00 | 75 | 1015.4 |
| 20260902150932 | 81 | 52 | 1.0 | 1.0 | 0.00 | 0.00 | 0.00 | 75 | 1015.2 |
| 20260902150429 | 81 | 97 | 1.0 | 2.0 | 0.00 | 0.00 | 0.00 | 75 | 1015.3 |
| 20260902145928 | 80 | 111 | 1.0 | 1.0 | 0.00 | 0.00 | 0.00 | 76 | 1015.7 |
| 20260902145424 | 79 | 125 | 2.0 | 5.0 | 0.00 | 0.00 | 0.00 | 77 | 1015.3 |
| 20260902144918 | 79 | 140 | 1.0 | 2.0 | 0.00 | 0.00 | 0.00 | 79 | 1015.4 |
| 20260902144415 | 77 | 83 | 1.0 | 1.0 | 0.00 | 0.00 | 0.00 | 82 | 1015.6 |
| 20260902143914 | 77 | 80 | 1.0 | 2.0 | 0.00 | 0.00 | 0.00 | 82 | 1015.4 |
| 20260902143409 | 76 | 74 | 0.0 | 1.0 | 0.00 | 0.00 | 0.00 | 82 | 1015.8 |
| 20260902142905 | 76 | 78 | 1.0 | 1.0 | 0.00 | 0.00 | 0.00 | 82 | 1015.8 |
| 20260902142401 | 77 | 102 | 0.0 | 1.0 | 0.00 | 0.00 | 0.00 | 81 | 1015.7 |
| 20260902141856 | 76 | 73 | 0.0 | 0.0 | 0.00 | 0.00 | 0.00 | 83 | 1015.8 |
| 20260902141351 | 76 | 79 | 1.0 | 1.0 | 0.00 | 0.00 | 0.00 | 82 | 1015.6 |
| 20260902140850 | 76 | 76 | 1.0 | 1.0 | 0.00 | 0.00 | 0.00 | 82 | 1016.0 |
| 20260902140346 | 76 | 70 | 1.0 | 1.0 | 0.00 | 0.00 | 0.00 | 83 | 1016.2 |
| 20260902135840 | 75 | 90 | 1.0 | 1.0 | 0.00 | 0.00 | 0.00 | 82 | 1015.9 |
| 20260902135336 | 75 | 71 | 1.0 | 1.0 | 0.00 | 0.00 | 0.00 | 81 | 1015.9 |
| 20260902134835 | 75 | 65 | 1.0 | 2.0 | 0.00 | 0.00 | 0.00 | 80 | 1015.9 |
| 20260902134330 | 76 | 70 | 2.0 | 2.0 | 0.00 | 0.00 | 0.00 | 81 | 1015.8 |
| 20260902133826 | 76 | 74 | 1.0 | 2.0 | 0.00 | 0.00 | 0.00 | 81 | 1015.6 |
| 20260902133325 | 75 | 76 | 1.0 | 1.0 | 0.00 | 0.00 | 0.00 | 82 | 1016.2 |
| 20260902132820 | 75 | 63 | 2.0 | 2.0 | 0.00 | 0.00 | 0.00 | 82 | 1016.2 |
| 20260902132316 | 75 | 57 | 3.0 | 6.0 | 0.00 | 0.00 | 0.00 | 82 | 1016.0 |
| 20260902131811 | 75 | 53 | 2.0 | 2.0 | 0.00 | 0.00 | 0.00 | 82 | 1016.4 |
| 20260902131308 | 76 | 71 | 0.0 | 1.0 | 0.00 | 0.00 | 0.00 | 82 | 1016.3 |
| 20260902130807 | 76 | 30 | 3.0 | 3.0 | 0.00 | 0.00 | 0.00 | 83 | 1016.6 |
| 20260902130303 | 76 | 70 | 1.0 | 2.0 | 0.00 | 0.00 | 0.00 | 85 | 1016.2 |
| 20260902125758 | 76 | 65 | 1.0 | 1.0 | 0.00 | 0.00 | 0.00 | 85 | 1016.4 |
| 20260902125254 | 76 | 81 | 0.0 | 0.0 | 0.00 | 0.00 | 0.00 | 86 | 1016.2 |
| 20260902124750 | 76 | 88 | 1.0 | 2.0 | 0.00 | 0.00 | 0.00 | 85 | 1016.5 |
| 20260902124246 | 76 | 53 | 2.0 | 3.0 | 0.00 | 0.00 | 0.00 | 86 | 1016.4 |
| 20260902123740 | 75 | 70 | 1.0 | 1.0 | 0.00 | 0.00 | 0.00 | 88 | 1016.4 |
| 20260902123237 | 75 | 46 | 1.0 | 2.0 | 0.00 | 0.00 | 0.00 | 90 | 1016.5 |
| 20260902122735 | 74 | 68 | 1.0 | 1.0 | 0.00 | 0.00 | 0.00 | 94 | 1016.6 |
| 20260902122232 | 74 | 76 | 0.0 | 0.0 | 0.00 | 0.00 | 0.00 | 97 | 1016.4 |
| 20260902121731 | 73 | 63 | 1.0 | 1.0 | 0.00 | 0.00 | 0.00 | 97 | 1016.5 |
| 20260902121226 | 73 | 90 | 1.0 | 1.0 | 0.00 | 0.00 | 0.00 | 98 | 1016.4 |
| 20260902120722 | 73 | 13 | 1.0 | 2.0 | 0.00 | 0.00 | 0.00 | 98 | 1016.1 |
| 20260902120218 | 73 | 51 | 1.0 | 1.0 | 0.00 | 0.00 | 0.00 | 98 | 1016.1 |
| 20260902115718 | 73 | 71 | 0.0 | 0.0 | 0.00 | 0.00 | 0.00 | 98 | 1016.2 |
| 20260902115214 | 73 | 11 | 1.0 | 1.0 | 0.00 | 0.00 | 0.00 | 99 | 1016.1 |
| 20260902114710 | 72 | 33 | 2.0 | 2.0 | 0.00 | 0.00 | 0.00 | 99 | 1016.4 |
| 20260902114206 | 72 | 77 | 0.0 | 0.0 | 0.00 | 0.00 | 0.00 | 99 | 1015.8 |
| 20260902113700 | 72 | 75 | 0.0 | 0.0 | 0.00 | 0.00 | 0.00 | 99 | 1016.0 |
| 20260902113155 | 72 | 343 | 3.0 | 3.0 | 0.00 | 0.00 | 0.00 | 99 | 1015.4 |
| 20260902112655 | 72 | 121 | 1.0 | 1.0 | 0.00 | 0.00 | 0.00 | 99 | 1015.0 |
| 20260902112153 | 72 | 86 | 0.0 | 0.0 | 0.00 | 0.00 | 0.00 | 99 | 1015.0 |
| 20260902111648 | 72 | 80 | 0.0 | 0.0 | 0.00 | 0.00 | 0.00 | 98 | 1015.1 |
| 20260902111143 | 72 | 86 | 0.0 | 0.0 | 0.00 | 0.00 | 0.00 | 98 | 1015.0 |
| 20260902110639 | 73 | 86 | 0.0 | 0.0 | 0.00 | 0.00 | 0.00 | 99 | 1014.9 |
| 20260902110135 | 73 | 82 | 0.0 | 0.0 | 0.00 | 0.00 | 0.00 | 99 | 1014.9 |
| 20260902105634 | 73 | 81 | 0.0 | 0.0 | 0.00 | 0.00 | 0.00 | 98 | 1015.0 |
| 20260902105130 | 73 | 87 | 0.0 | 0.0 | 0.00 | 0.00 | 0.00 | 98 | 1015.1 |
| 20260902104625 | 73 | 81 | 0.0 | 0.0 | 0.00 | 0.00 | 0.00 | 98 | 1015.3 |
| 20260902104120 | 73 | 72 | 0.0 | 0.0 | 0.00 | 0.00 | 0.00 | 98 | 1015.2 |
| 20260902103619 | 73 | 51 | 0.0 | 0.0 | 0.00 | 0.00 | 0.00 | 98 | 1015.0 |
| 20260902103115 | 73 | 86 | 0.0 | 0.0 | 0.00 | 0.00 | 0.00 | 98 | 1015.1 |
| 20260902102611 | 73 | 85 | 0.0 | 0.0 | 0.00 | 0.00 | 0.00 | 98 | 1014.9 |
| 20260902102108 | 73 | 79 | 0.0 | 0.0 | 0.00 | 0.00 | 0.00 | 98 | 1015.3 |
| 20260902101603 | 73 | 77 | 0.0 | 0.0 | 0.00 | 0.00 | 0.00 | 98 | 1015.3 |
| 20260902101102 | 73 | 82 | 0.0 | 0.0 | 0.00 | 0.00 | 0.00 | 98 | 1015.2 |
| 20260902100551 | 74 | 80 | 0.0 | 0.0 | 0.00 | 0.00 | 0.00 | 98 | 1015.1 |
| 20260902100046 | 74 | 81 | 0.0 | 0.0 | 0.00 | 0.00 | 0.00 | 98 | 1015.2 |
| 20260902095540 | 74 | 75 | 0.0 | 0.0 | 0.00 | 0.00 | 0.00 | 98 | 1015.3 |
| 20260902095039 | 74 | 93 | 0.0 | 1.0 | 0.00 | 0.00 | 0.00 | 98 | 1015.1 |
| 20260902094535 | 74 | 104 | 0.0 | 1.0 | 0.00 | 0.00 | 0.00 | 98 | 1015.3 |
| 20260902094030 | 73 | 82 | 1.0 | 1.0 | 0.00 | 0.00 | 0.00 | 98 | 1015.7 |
| 20260902093525 | 73 | 82 | 0.0 | 0.0 | 0.00 | 0.00 | 0.00 | 98 | 1015.0 |
| 20260902093025 | 73 | 85 | 0.0 | 0.0 | 0.00 | 0.00 | 0.00 | 98 | 1015.2 |
| 20260902092520 | 73 | 80 | 0.0 | 0.0 | 0.00 | 0.00 | 0.00 | 98 | 1015.3 |
| 20260902092015 | 73 | 69 | 0.0 | 0.0 | 0.00 | 0.00 | 0.00 | 98 | 1015.4 |
| 20260902091510 | 73 | 72 | 0.0 | 0.0 | 0.00 | 0.00 | 0.00 | 98 | 1015.0 |
| 20260902091006 | 73 | 82 | 0.0 | 0.0 | 0.00 | 0.00 | 0.00 | 98 | 1015.1 |
| 20260902090502 | 73 | 88 | 0.0 | 0.0 | 0.00 | 0.00 | 0.00 | 98 | 1015.0 |
| 20260902090000 | 73 | 83 | 0.0 | 0.0 | 0.00 | 0.00 | 0.00 | 98 | 1015.0 |
| 20260902085455 | 73 | 82 | 0.0 | 0.0 | 0.00 | 0.00 | 0.00 | 98 | 1015.0 |
| 20260902084950 | 73 | 81 | 0.0 | 0.0 | 0.00 | 0.00 | 0.00 | 98 | 1015.1 |
| 20260902084447 | 73 | 82 | 0.0 | 0.0 | 0.00 | 0.00 | 0.00 | 98 | 1015.1 |
| 20260902083943 | 73 | 78 | 0.0 | 0.0 | 0.00 | 0.00 | 0.00 | 98 | 1014.9 |
| 20260902083442 | 73 | 78 | 0.0 | 0.0 | 0.00 | 0.00 | 0.00 | 98 | 1015.1 |
| 20260902082937 | 73 | 78 | 0.0 | 0.0 | 0.00 | 0.00 | 0.00 | 98 | 1015.1 |
| 20260902082433 | 73 | 75 | 0.0 | 0.0 | 0.00 | 0.00 | 0.00 | 98 | 1015.0 |
| 20260902081929 | 74 | 82 | 0.0 | 0.0 | 0.00 | 0.00 | 0.00 | 98 | 1014.9 |
| 20260902081425 | 74 | 82 | 0.0 | 0.0 | 0.00 | 0.00 | 0.00 | 98 | 1014.7 |
| 20260902080920 | 74 | 91 | 0.0 | 0.0 | 0.00 | 0.00 | 0.00 | 98 | 1014.7 |
| 20260902080416 | 74 | 88 | 0.0 | 0.0 | 0.00 | 0.00 | 0.00 | 98 | 1014.8 |
| 20260902075915 | 74 | 20 | 0.0 | 0.0 | 0.00 | 0.00 | 0.00 | 97 | 1014.9 |
| 20260902075412 | 75 | 158 | 0.0 | 0.0 | 0.00 | 0.00 | 0.00 | 97 | 1015.0 |
| 20260902074907 | 75 | 90 | 0.0 | 0.0 | 0.00 | 0.00 | 0.00 | 97 | 1015.0 |
| 20260902074403 | 75 | 75 | 0.0 | 1.0 | 0.00 | 0.00 | 0.00 | 97 | 1014.9 |
| 20260902073857 | 75 | 69 | 0.0 | 0.0 | 0.00 | 0.00 | 0.00 | 97 | 1015.2 |
| 20260902073354 | 75 | 97 | 0.0 | 0.0 | 0.00 | 0.00 | 0.00 | 97 | 1015.0 |
| 20260902072849 | 75 | 86 | 0.0 | 0.0 | 0.00 | 0.00 | 0.00 | 97 | 1015.0 |
| 20260902072345 | 75 | 57 | 1.0 | 1.0 | 0.00 | 0.00 | 0.00 | 98 | 1014.9 |
| 20260902071842 | 75 | 24 | 1.0 | 2.0 | 0.00 | 0.00 | 0.00 | 98 | 1015.1 |
| 20260902071341 | 75 | 49 | 2.0 | 2.0 | 0.00 | 0.00 | 0.00 | 97 | 1015.0 |
| 20260902070837 | 75 | 77 | 0.0 | 0.0 | 0.00 | 0.00 | 0.00 | 97 | 1014.9 |
| 20260902070332 | 75 | 83 | 0.0 | 0.0 | 0.00 | 0.00 | 0.00 | 97 | 1014.7 |
| 20260902065831 | 75 | 82 | 0.0 | 0.0 | 0.00 | 0.00 | 0.00 | 97 | 1014.8 |
| 20260902065326 | 75 | 84 | 0.0 | 0.0 | 0.00 | 0.00 | 0.00 | 97 | 1014.9 |
| 20260902064821 | 75 | 93 | 0.0 | 0.0 | 0.00 | 0.00 | 0.00 | 97 | 1014.6 |
| 20260902064317 | 75 | 88 | 0.0 | 0.0 | 0.00 | 0.00 | 0.00 | 97 | 1014.8 |
| 20260902063812 | 76 | 91 | 0.0 | 0.0 | 0.00 | 0.00 | 0.00 | 97 | 1015.0 |
| 20260902063307 | 76 | 108 | 0.0 | 0.0 | 0.00 | 0.00 | 0.00 | 97 | 1014.8 |
| 20260902062801 | 76 | 90 | 0.0 | 0.0 | 0.00 | 0.00 | 0.00 | 97 | 1015.1 |
| 20260902062256 | 76 | 92 | 0.0 | 0.0 | 0.00 | 0.00 | 0.00 | 97 | 1015.1 |
| 20260902061755 | 76 | 90 | 0.0 | 0.0 | 0.00 | 0.00 | 0.00 | 97 | 1015.0 |
| 20260902061250 | 76 | 85 | 0.0 | 0.0 | 0.00 | 0.00 | 0.00 | 97 | 1015.1 |
| 20260902060748 | 76 | 81 | 0.0 | 0.0 | 0.00 | 0.00 | 0.00 | 97 | 1015.1 |
| 20260902060243 | 76 | 83 | 0.0 | 0.0 | 0.00 | 0.00 | 0.00 | 97 | 1015.4 |
| 20260902055738 | 76 | 81 | 0.0 | 0.0 | 0.00 | 0.00 | 0.00 | 97 | 1015.2 |
| 20260902055234 | 76 | 79 | 0.0 | 0.0 | 0.00 | 0.00 | 0.00 | 97 | 1015.3 |
| 20260902054729 | 76 | 77 | 0.0 | 0.0 | 0.00 | 0.00 | 0.00 | 97 | 1015.4 |
| 20260902054225 | 76 | 77 | 0.0 | 0.0 | 0.00 | 0.00 | 0.00 | 97 | 1015.7 |
| 20260902053720 | 76 | 78 | 0.0 | 0.0 | 0.00 | 0.00 | 0.00 | 97 | 1015.1 |
| 20260902053220 | 76 | 74 | 0.0 | 0.0 | 0.00 | 0.00 | 0.00 | 97 | 1015.1 |
| 20260902052719 | 76 | 77 | 0.0 | 0.0 | 0.00 | 0.00 | 0.00 | 97 | 1015.0 |
| 20260902052215 | 76 | 71 | 0.0 | 0.0 | 0.00 | 0.00 | 0.00 | 97 | 1014.8 |
| 20260902051714 | 76 | 81 | 0.0 | 0.0 | 0.00 | 0.00 | 0.00 | 97 | 1015.0 |
| 20260902051209 | 76 | 84 | 0.0 | 0.0 | 0.00 | 0.00 | 0.00 | 97 | 1014.6 |
| 20260902050703 | 76 | 104 | 0.0 | 0.0 | 0.00 | 0.00 | 0.00 | 97 | 1014.3 |
| 20260902050159 | 76 | 92 | 0.0 | 0.0 | 0.00 | 0.00 | 0.00 | 97 | 1014.6 |
| 20260902045653 | 76 | 77 | 0.0 | 0.0 | 0.00 | 0.07 | 0.07 | 97 | 1014.9 |
| 20260902045149 | 76 | 71 | 0.0 | 0.0 | 0.00 | 0.07 | 0.07 | 97 | 1015.0 |
| 20260902044644 | 76 | 71 | 0.0 | 1.0 | 0.00 | 0.07 | 0.07 | 97 | 1015.0 |
| 20260902044140 | 76 | 84 | 0.0 | 0.0 | 0.00 | 0.07 | 0.07 | 97 | 1014.8 |
| 20260902043635 | 76 | 89 | 0.0 | 0.0 | 0.00 | 0.07 | 0.07 | 97 | 1014.5 |
| 20260902043130 | 76 | 83 | 0.0 | 0.0 | 0.00 | 0.07 | 0.07 | 97 | 1014.6 |
| 20260902042629 | 76 | 81 | 0.0 | 0.0 | 0.00 | 0.07 | 0.07 | 97 | 1014.6 |
| 20260902042125 | 76 | 83 | 0.0 | 0.0 | 0.00 | 0.07 | 0.07 | 97 | 1014.7 |
| 20260902041625 | 76 | 81 | 0.0 | 0.0 | 0.00 | 0.07 | 0.07 | 97 | 1014.9 |
| 20260902041119 | 76 | 76 | 0.0 | 0.0 | 0.00 | 0.07 | 0.07 | 97 | 1014.8 |
| 20260902040619 | 76 | 77 | 0.0 | 0.0 | 0.00 | 0.07 | 0.07 | 97 | 1014.6 |
| 20260902040114 | 76 | 56 | 1.0 | 1.0 | 0.00 | 0.07 | 0.07 | 97 | 1014.5 |
| 20260902035612 | 76 | 107 | 0.0 | 1.0 | 0.00 | 0.07 | 0.07 | 97 | 1014.7 |
| 20260902035108 | 76 | 104 | 1.0 | 1.0 | 0.00 | 0.07 | 0.07 | 97 | 1014.6 |
| 20260902034607 | 76 | 138 | 0.0 | 1.0 | 0.00 | 0.07 | 0.07 | 97 | 1014.6 |
| 20260902034101 | 76 | 121 | 0.0 | 1.0 | 0.00 | 0.07 | 0.07 | 97 | 1014.8 |
| 20260902033600 | 76 | 109 | 1.0 | 1.0 | 0.00 | 0.07 | 0.07 | 96 | 1014.7 |
| 20260902033055 | 76 | 84 | 0.0 | 0.0 | 0.00 | 0.07 | 0.07 | 96 | 1014.6 |
| 20260902032554 | 76 | 84 | 0.0 | 0.0 | 0.00 | 0.07 | 0.07 | 96 | 1014.8 |
| 20260902032049 | 76 | 83 | 0.0 | 0.0 | 0.00 | 0.07 | 0.07 | 96 | 1015.1 |
| 20260902031543 | 76 | 78 | 0.0 | 0.0 | 0.00 | 0.07 | 0.07 | 96 | 1014.9 |
| 20260902031040 | 76 | 78 | 0.0 | 0.0 | 0.00 | 0.07 | 0.07 | 96 | 1014.9 |
| 20260902030534 | 76 | 77 | 0.0 | 0.0 | 0.00 | 0.07 | 0.07 | 96 | 1015.0 |
| 20260902030034 | 76 | 78 | 0.0 | 0.0 | 0.00 | 0.07 | 0.07 | 96 | 1015.2 |
| 20260902025529 | 77 | 70 | 0.0 | 0.0 | 0.00 | 0.07 | 0.07 | 96 | 1015.0 |
| 20260902025024 | 77 | 82 | 0.0 | 0.0 | 0.00 | 0.07 | 0.07 | 96 | 1015.0 |
| 20260902024519 | 77 | 83 | 0.0 | 0.0 | 0.00 | 0.07 | 0.07 | 96 | 1014.9 |
| 20260902024014 | 77 | 84 | 0.0 | 0.0 | 0.00 | 0.07 | 0.07 | 96 | 1015.0 |
| 20260902023510 | 77 | 84 | 0.0 | 0.0 | 0.00 | 0.07 | 0.07 | 96 | 1015.2 |
| 20260902023010 | 77 | 82 | 0.0 | 0.0 | 0.00 | 0.07 | 0.07 | 96 | 1015.2 |
| 20260902022504 | 77 | 82 | 0.0 | 0.0 | 0.00 | 0.07 | 0.07 | 96 | 1015.3 |
| 20260902022000 | 77 | 82 | 0.0 | 0.0 | 0.00 | 0.07 | 0.07 | 96 | 1015.4 |
| 20260902021455 | 77 | 74 | 0.0 | 1.0 | 0.00 | 0.07 | 0.07 | 96 | 1015.4 |
| 20260902020950 | 77 | 78 | 0.0 | 0.0 | 0.00 | 0.07 | 0.07 | 96 | 1015.3 |
| 20260902020446 | 77 | 84 | 0.0 | 0.0 | 0.00 | 0.07 | 0.07 | 96 | 1015.1 |
| 20260902015942 | 77 | 97 | 0.0 | 0.0 | 0.00 | 0.07 | 0.07 | 96 | 1015.6 |
| 20260902015437 | 77 | 69 | 0.0 | 0.0 | 0.00 | 0.07 | 0.07 | 96 | 1015.7 |
| 20260902014932 | 77 | 56 | 1.0 | 1.0 | 0.00 | 0.07 | 0.07 | 95 | 1015.4 |
| 20260902014429 | 77 | 73 | 0.0 | 0.0 | 0.00 | 0.07 | 0.07 | 95 | 1015.0 |
| 20260902013928 | 77 | 82 | 0.0 | 0.0 | 0.00 | 0.07 | 0.07 | 95 | 1015.0 |
| 20260902013424 | 77 | 76 | 0.0 | 0.0 | 0.00 | 0.07 | 0.07 | 95 | 1015.0 |
| 20260902012919 | 77 | 76 | 0.0 | 0.0 | 0.00 | 0.07 | 0.07 | 95 | 1014.9 |
| 20260902012414 | 77 | 82 | 0.0 | 0.0 | 0.00 | 0.07 | 0.07 | 95 | 1015.1 |
| 20260902011910 | 77 | 75 | 0.0 | 0.0 | 0.00 | 0.07 | 0.07 | 95 | 1014.7 |
| 20260902011405 | 77 | 76 | 0.0 | 0.0 | 0.00 | 0.07 | 0.07 | 95 | 1014.8 |
| 20260902010859 | 77 | 75 | 0.0 | 0.0 | 0.00 | 0.07 | 0.07 | 95 | 1014.8 |
| 20260902010353 | 77 | 55 | 1.0 | 1.0 | 0.00 | 0.07 | 0.07 | 94 | 1014.7 |
| 20260902005852 | 77 | 82 | 0.0 | 0.0 | 0.00 | 0.07 | 0.07 | 94 | 1014.7 |
| 20260902005346 | 78 | 81 | 0.0 | 0.0 | 0.00 | 0.07 | 0.07 | 94 | 1014.7 |
| 20260902004842 | 78 | 81 | 0.0 | 0.0 | 0.00 | 0.07 | 0.07 | 94 | 1014.9 |
| 20260902004336 | 78 | 84 | 0.0 | 0.0 | 0.00 | 0.07 | 0.07 | 94 | 1014.6 |
| 20260902003832 | 78 | 84 | 0.0 | 0.0 | 0.00 | 0.07 | 0.07 | 93 | 1014.6 |
| 20260902003327 | 78 | 83 | 0.0 | 0.0 | 0.00 | 0.07 | 0.07 | 93 | 1014.6 |
| 20260902002823 | 78 | 82 | 0.0 | 0.0 | 0.00 | 0.07 | 0.07 | 93 | 1014.5 |
| 20260902002322 | 78 | 81 | 0.0 | 0.0 | 0.00 | 0.07 | 0.07 | 92 | 1014.5 |
| 20260902001818 | 79 | 81 | 0.0 | 0.0 | 0.00 | 0.07 | 0.07 | 92 | 1014.7 |
| 20260902001313 | 79 | 82 | 0.0 | 0.0 | 0.00 | 0.07 | 0.07 | 92 | 1014.5 |
| 20260902000812 | 79 | 75 | 0.0 | 0.0 | 0.00 | 0.07 | 0.07 | 92 | 1014.8 |
| 20260902000307 | 79 | 75 | 0.0 | 0.0 | 0.00 | 0.07 | 0.07 | 91 | 1014.6 |
| 20260901235802 | 79 | 75 | 0.0 | 0.0 | 0.00 | 0.07 | 0.07 | 91 | 1014.6 |
| 20260901235257 | 79 | 72 | 0.0 | 0.0 | 0.00 | 0.07 | 0.07 | 91 | 1014.5 |
| 20260901234756 | 79 | 69 | 0.0 | 1.0 | 0.00 | 0.07 | 0.07 | 91 | 1014.5 |
| 20260901234252 | 79 | 72 | 0.0 | 0.0 | 0.00 | 0.07 | 0.07 | 91 | 1014.5 |
| 20260901233746 | 79 | 74 | 0.0 | 0.0 | 0.00 | 0.07 | 0.07 | 91 | 1014.4 |
| 20260901233242 | 80 | 69 | 0.0 | 0.0 | 0.00 | 0.07 | 0.07 | 90 | 1014.1 |
| 20260901232742 | 80 | 74 | 0.0 | 0.0 | 0.00 | 0.07 | 0.07 | 89 | 1014.1 |
| 20260901232232 | 80 | 68 | 0.0 | 0.0 | 0.00 | 0.07 | 0.07 | 89 | 1013.8 |
| 20260901231728 | 80 | 105 | 0.0 | 0.0 | 0.00 | 0.07 | 0.07 | 89 | 1013.7 |
| 20260901231224 | 80 | 86 | 0.0 | 0.0 | 0.00 | 0.07 | 0.07 | 89 | 1014.0 |
| 20260901230720 | 79 | 89 | 0.0 | 1.0 | 0.00 | 0.07 | 0.07 | 89 | 1013.9 |
| 20260901230219 | 80 | 84 | 1.0 | 1.0 | 0.00 | 0.07 | 0.07 | 89 | 1014.2 |
| 20260901225714 | 80 | 106 | 1.0 | 1.0 | 0.00 | 0.07 | 0.07 | 88 | 1014.5 |
| 20260901225209 | 80 | 92 | 0.0 | 0.0 | 0.00 | 0.07 | 0.07 | 87 | 1014.6 |
| 20260901224705 | 80 | 88 | 0.0 | 0.0 | 0.00 | 0.07 | 0.07 | 87 | 1014.5 |
| 20260901224201 | 80 | 106 | 0.0 | 1.0 | 0.00 | 0.07 | 0.07 | 87 | 1014.8 |
| 20260901223657 | 80 | 88 | 0.0 | 1.0 | 0.00 | 0.07 | 0.07 | 89 | 1015.0 |
| 20260901223157 | 80 | 73 | 0.0 | 1.0 | 0.00 | 0.07 | 0.07 | 87 | 1014.9 |
| 20260901222653 | 80 | 349 | 3.0 | 3.0 | 0.00 | 0.07 | 0.07 | 88 | 1014.8 |
| 20260901222149 | 81 | 68 | 0.0 | 0.0 | 0.00 | 0.07 | 0.07 | 88 | 1014.8 |
| 20260901221645 | 80 | 78 | 0.0 | 0.0 | 0.00 | 0.07 | 0.07 | 89 | 1014.7 |
| 20260901221140 | 80 | 92 | 0.0 | 1.0 | 0.00 | 0.07 | 0.07 | 89 | 1014.8 |
| 20260901220639 | 79 | 81 | 0.0 | 0.0 | 0.00 | 0.07 | 0.07 | 89 | 1014.6 |
| 20260901220139 | 79 | 91 | 1.0 | 1.0 | 0.00 | 0.07 | 0.07 | 89 | 1014.7 |
| 20260901215638 | 78 | 90 | 0.0 | 0.0 | 0.00 | 0.07 | 0.07 | 90 | 1014.8 |
| 20260901215133 | 78 | 77 | 0.0 | 0.0 | 0.00 | 0.07 | 0.07 | 90 | 1015.0 |
| 20260901214631 | 78 | 83 | 0.0 | 0.0 | 0.00 | 0.07 | 0.07 | 89 | 1014.7 |
| 20260901214130 | 78 | 126 | 0.0 | 1.0 | 0.00 | 0.07 | 0.07 | 89 | 1014.8 |
| 20260901213625 | 79 | 338 | 1.0 | 1.0 | 0.00 | 0.07 | 0.07 | 91 | 1014.9 |
| 20260901213119 | 78 | 74 | 0.0 | 1.0 | 0.00 | 0.07 | 0.07 | 92 | 1014.7 |
| 20260901212613 | 78 | 75 | 0.0 | 0.0 | 0.00 | 0.07 | 0.07 | 91 | 1014.9 |
| 20260901212110 | 78 | 62 | 0.0 | 0.0 | 0.00 | 0.07 | 0.07 | 90 | 1015.0 |
| 20260901211604 | 78 | 62 | 0.0 | 0.0 | 0.00 | 0.07 | 0.07 | 89 | 1015.0 |
| 20260901211101 | 79 | 25 | 3.0 | 3.0 | 0.05 | 0.07 | 0.07 | 89 | 1015.2 |
| 20260901210556 | 79 | 85 | 2.0 | 2.0 | 0.05 | 0.07 | 0.07 | 90 | 1015.0 |
| 20260901210052 | 79 | 51 | 1.0 | 1.0 | 0.00 | 0.06 | 0.06 | 91 | 1014.8 |
| 20260901205547 | 79 | 36 | 2.0 | 2.0 | 0.00 | 0.06 | 0.06 | 92 | 1014.9 |
| 20260901205041 | 79 | 73 | 1.0 | 1.0 | 0.07 | 0.06 | 0.06 | 92 | 1014.7 |
| 20260901204538 | 79 | 55 | 0.0 | 1.0 | 0.07 | 0.06 | 0.06 | 92 | 1014.7 |
| 20260901204033 | 79 | 131 | 2.0 | 2.0 | 0.00 | 0.05 | 0.05 | 91 | 1014.9 |
| 20260901203533 | 79 | 211 | 1.0 | 1.0 | 0.00 | 0.05 | 0.05 | 92 | 1015.1 |
| 20260901203028 | 80 | 81 | 1.0 | 1.0 | 0.00 | 0.05 | 0.05 | 92 | 1014.8 |
| 20260901202522 | 80 | 85 | 0.0 | 0.0 | 0.17 | 0.05 | 0.05 | 92 | 1014.9 |
| 20260901202019 | 81 | 86 | 0.0 | 1.0 | 0.28 | 0.05 | 0.05 | 91 | 1015.0 |
| 20260901201514 | 82 | 86 | 0.0 | 0.0 | 0.00 | 0.00 | 0.00 | 89 | 1015.2 |
| 20260901201009 | 82 | 222 | 2.0 | 2.0 | 0.00 | 0.00 | 0.00 | 89 | 1015.8 |
| 20260901200509 | 82 | 95 | 0.0 | 1.0 | 0.00 | 0.00 | 0.00 | 89 | 1015.7 |
| 20260901200008 | 83 | 109 | 1.0 | 1.0 | 0.00 | 0.00 | 0.00 | 87 | 1015.0 |
| 20260901195506 | 83 | 169 | 3.0 | 3.0 | 0.00 | 0.00 | 0.00 | 84 | 1015.0 |
| 20260901195005 | 84 | 49 | 2.0 | 2.0 | 0.00 | 0.00 | 0.00 | 82 | 1015.1 |